Change the Weather History Date:

Sunday, February 3, 2013

  Actual Average Record
Temperature  
Mean Temperature 58 °F -  
Max Temperature 66 °F 58 °F 80 °F (2014)
Min Temperature 50 °F 44 °F 32 °F (2007)
Degree Days  
Heating Degree Days 7    
Growing Degree Days 8 (Base 50)    
Moisture  
Dew Point 43 °F    
Average Humidity 59    
Maximum Humidity 86    
Minimum Humidity 31    
Precipitation  
Precipitation 0.00 in - - ()
Sea Level Pressure  
Sea Level Pressure 30.17 in    
Wind  
Wind Speed 6 mph (NW)    
Max Wind Speed 10 mph    
Max Gust Speed 16 mph    
Visibility 10 miles    
Events      
Averages and records for this station are not official NWS values.
T = Trace of Precipitation, MM = Missing Value Source: NWS Daily Summary

Daily Weather History Graph

Daily Weather History Graph

Search for Another Location

Airport or City:

Trip Planner

Search our weather history database for the weather conditions in past years. The results will help you decide how hot, cold, wet, or windy it might be!

Date:

Astronomy

Feb. 03, 2013 Rise Set
Actual Time 6:35 AM CST 5:24 PM CST
Civil Twilight 6:10 AM CST 5:49 PM CST
Nautical Twilight 5:41 AM CST 6:18 PM CST
Astronomical Twilight 5:13 AM CST 6:46 PM CST
Moon 12:01 AM CST (2/3) 11:03 AM CST (2/3)
Length of Visible Light 11h 39m
Length of Day
10h 49m
Waning Gibbous, 48% of the Moon is Illuminated
Feb 3
Waning Gibbous
Feb 10
New
Feb 17
First Quarter
Feb 25
Full
Mar 4
Last Quarter

Hourly Weather History & Observations

Time (CST) Temp. Dew Point Humidity Pressure Visibility Wind Dir Wind Speed Gust Speed Precip Events Conditions
12:53 AM 62.1 °F 50.0 °F 65% 30.17 in 10.0 mi Variable 5.8 mph - N/A   Scattered Clouds
1:53 AM 60.1 °F 51.1 °F 72% 30.17 in 10.0 mi Variable 3.5 mph - N/A   Mostly Cloudy
2:53 AM 54.0 °F 48.9 °F 83% 30.19 in 10.0 mi North 8.1 mph - N/A   Mostly Cloudy
3:53 AM 52.0 °F 48.0 °F 86% 30.19 in 10.0 mi NNW 8.1 mph - N/A   Clear
4:53 AM 52.0 °F 46.9 °F 83% 30.19 in 10.0 mi North 10.4 mph - N/A   Clear
5:53 AM 51.1 °F 44.1 °F 77% 30.20 in 10.0 mi North 8.1 mph - N/A   Clear
6:53 AM 50.0 °F 45.0 °F 83% 30.22 in 10.0 mi NNE 6.9 mph - N/A   Clear
7:53 AM 52.0 °F 44.1 °F 74% 30.24 in 10.0 mi NNE 5.8 mph - N/A   Clear
8:53 AM 55.0 °F 41.0 °F 59% 30.25 in 10.0 mi NE 4.6 mph - N/A   Clear
9:53 AM 57.0 °F 37.9 °F 49% 30.25 in 10.0 mi North 3.5 mph - N/A   Clear
10:53 AM 62.1 °F 36.0 °F 38% 30.23 in 10.0 mi Calm Calm - N/A   Clear
11:53 AM 63.0 °F 32.0 °F 31% 30.20 in 10.0 mi Variable 5.8 mph - N/A   Clear
12:53 PM 61.0 °F 39.9 °F 46% 30.16 in 10.0 mi SSW 8.1 mph - N/A   Clear
1:53 PM 64.0 °F 39.0 °F 40% 30.14 in 10.0 mi SW 6.9 mph - N/A   Clear
2:53 PM 66.0 °F 39.0 °F 37% 30.13 in 10.0 mi WSW 6.9 mph 16.1 mph N/A   Clear
3:53 PM 64.0 °F 39.0 °F 40% 30.11 in 10.0 mi West 6.9 mph - N/A   Clear
4:53 PM 62.1 °F 42.1 °F 48% 30.12 in 10.0 mi WSW 5.8 mph - N/A   Clear
5:53 PM 61.0 °F 43.0 °F 52% 30.12 in 10.0 mi Variable 3.5 mph - N/A   Clear
6:53 PM 61.0 °F 45.0 °F 56% 30.13 in 10.0 mi WSW 6.9 mph - N/A   Clear
7:53 PM 60.1 °F 46.0 °F 60% 30.13 in 10.0 mi West 3.5 mph - N/A   Clear
8:53 PM 57.0 °F 42.1 °F 57% 30.14 in 10.0 mi Calm Calm - N/A   Clear
9:53 PM 55.9 °F 42.1 °F 60% 30.14 in 10.0 mi Calm Calm - N/A   Clear
10:53 PM 55.9 °F 43.0 °F 62% 30.13 in 10.0 mi Calm Calm - N/A   Clear
11:53 PM 55.9 °F 44.1 °F 64% 30.12 in 10.0 mi NW 4.6 mph - N/A   Clear